Weather History for Chicopee, MA

Change the Weather History Date:

Monday, November 19, 2012

  Actual Average Record
Temperature  
Mean Temperature 34 °F -  
Max Temperature 49 °F 45 °F 62 °F (2003)
Min Temperature 20 °F 29 °F 14 °F (2014)
Degree Days  
Heating Degree Days 30    
Moisture  
Dew Point 25 °F    
Average Humidity 83    
Maximum Humidity 96    
Minimum Humidity 50    
Precipitation  
Precipitation 0.00 in - - ()
Sea Level Pressure  
Sea Level Pressure 30.43 in    
Wind  
Wind Speed 3 mph (NNE)    
Max Wind Speed 6 mph    
Max Gust Speed -    
Visibility 9 miles    
Events      
Averages and records for this station are not official NWS values.
T = Trace of Precipitation, MM = Missing Value Source: NWS Daily Summary

Daily Weather History Graph

Daily Weather History Graph

Search for Another Location

Airport:

Trip Planner

Search our weather history database for the weather conditions in past years. The results will help you decide how hot, cold, wet, or windy it might be!

Date:

Astronomy

Nov. 19, 2012 Rise Set
Actual Time 6:45 AM EST 4:24 PM EST
Civil Twilight 6:15 AM EST 4:55 PM EST
Nautical Twilight 5:41 AM EST 5:29 PM EST
Astronomical Twilight 5:08 AM EST 6:02 PM EST
Moon 11:44 AM EST (11/19) 10:51 PM EST (11/19)
Length of Visible Light 10h 39m
Length of Day
9h 39m
Waxing Crescent, 40% of the Moon is Illuminated
Nov 19
Waxing Crescent
Nov 20
First Quarter
Nov 28
Full
Dec 6
Last Quarter
Dec 13
New

Hourly Weather History & Observations

Time (EST) Temp. Windchill Dew Point Humidity Pressure Visibility Wind Dir Wind Speed Gust Speed Precip Events Conditions
12:55 AM 23.5 °F - 21.9 °F 94% 30.62 in 10.0 mi Calm Calm - N/A   Clear
1:55 AM 22.5 °F 16.3 °F 21.0 °F 94% 30.61 in 10.0 mi NE 4.6 mph - N/A   Clear
2:55 AM 22.3 °F 16.1 °F 20.7 °F 93% 30.60 in 10.0 mi ENE 4.6 mph - N/A   Clear
3:55 AM 20.8 °F 14.4 °F 19.0 °F 93% 30.58 in 10.0 mi NNE 4.6 mph - N/A   Clear
4:55 AM 21.9 °F 14.5 °F 20.3 °F 93% 30.57 in 10.0 mi NNE 5.8 mph - N/A   Partly Cloudy
5:55 AM 21.9 °F 15.7 °F 20.3 °F 93% 30.56 in 10.0 mi NE 4.6 mph - N/A   Clear
6:55 AM 23.5 °F 17.6 °F 21.9 °F 94% 30.56 in 10.0 mi North 4.6 mph - N/A   Clear
7:55 AM 25.5 °F - 24.3 °F 95% 30.55 in 10.0 mi Calm Calm - N/A   Clear
8:55 AM 31.3 °F 27.9 °F 28.8 °F 90% 30.55 in 10.0 mi NE 3.5 mph - N/A   Clear
9:55 AM 38.1 °F 34.6 °F 29.3 °F 71% 30.53 in 10.0 mi NNE 4.6 mph - N/A   Clear
10:55 AM 42.3 °F 39.4 °F 29.7 °F 61% 30.50 in 10.0 mi Variable 4.6 mph - N/A   Clear
11:55 AM 45.0 °F 43.5 °F 31.1 °F 58% 30.46 in 10.0 mi NNE 3.5 mph - N/A   Clear
12:55 PM 47.3 °F - 32.4 °F 56% 30.42 in 10.0 mi Variable 3.5 mph - N/A   Clear
1:55 PM 48.2 °F - 31.8 °F 53% 30.40 in 10.0 mi North 3.5 mph - N/A   Clear
2:55 PM 49.1 °F - 31.1 °F 50% 30.38 in 10.0 mi North 4.6 mph - 0.00 in   Clear
3:55 PM 46.8 °F - 29.3 °F 51% 30.37 in 10.0 mi NNE 3.5 mph - N/A   Clear
4:55 PM 39.7 °F - 28.6 °F 64% 30.37 in 10.0 mi Calm Calm - N/A   Clear
5:55 PM 34.7 °F - 28.8 °F 79% 30.37 in 10.0 mi Calm Calm - N/A   Clear
6:55 PM 29.8 °F - 27.5 °F 91% 30.35 in 10.0 mi Calm Calm - N/A   Clear
7:55 PM 27.5 °F - 25.7 °F 93% 30.34 in 10.0 mi Calm Calm - N/A   Clear
8:55 PM 28.2 °F - 26.8 °F 94% 30.33 in 10.0 mi Calm Calm - N/A   Clear
9:55 PM 25.9 °F - 25.0 °F 96% 30.31 in 10.0 mi Calm Calm - N/A   Clear
10:55 PM 24.3 °F - 22.8 °F 94% 30.29 in 10.0 mi Calm Calm - N/A   Clear
11:16 PM 24.8 °F 20.5 °F 23.0 °F 93% 30.29 in 2.5 mi NNE 3.5 mph - N/A   Clear
11:17 PM 24.8 °F 20.5 °F 23.0 °F 93% 30.29 in 2.0 mi NNE 3.5 mph - N/A   Clear
11:23 PM 24.8 °F 20.5 °F 23.0 °F 93% 30.29 in 2.5 mi North 3.5 mph - N/A   Clear
11:25 PM 24.8 °F 20.5 °F 23.0 °F 93% 30.29 in 4.0 mi NNE 3.5 mph - N/A   Clear
11:55 PM 23.7 °F 19.3 °F 22.6 °F 96% 30.28 in 10.0 mi North 3.5 mph - N/A   Clear